User: anonymous   Login
Location: Unspecified
(0.0000°N, 0.0000°E)
Time: 20:18:30
(UTC+00:00)
Language:

Explorer 7 - Orbit

View from above orbital plane
View from above orbital plane
View from above satellite
View from above satellite

Ground track
Ground track

The orbit data is extracted from the following two-line orbital elements,

1 00022U 59009A   15184.16273322  .00001649  00000-0  15333-3 0  9990
2 00022 050.2853 308.1736 0147354 188.7847 171.0516 14.92250161954486
Epoch (UTC): 03 July 2015 03:54:20
Eccentricity: 0.0147354
inclination: 50.2853°
perigee height: 488 km
apogee height: 693 km
right ascension of ascending node: 308.1736°
argument of perigee: 188.7847°
revolutions per day: 14.92250161
mean anomaly at epoch: 171.0516°
orbit number at epoch: 95448

The dashed part of the orbit path shows where the satellite is in the earth's shadow,  

DLR